{"data":{"norad_id":67274,"intl_designator":"2025-313AC","name":"2025-313AC","alt_names":[],"object_type":"PAYLOAD","status":"ACTIVE","operator":null,"country":"TBD","launch_date":"2025-12-28","launch_site_code":"VOSTO","launch_vehicle":null,"mission":null,"orbit_class":"UNKNOWN","rcs_meters":null,"size_class":null,"mass_kg":null,"dimensions":null,"purposes":[],"wikipedia_slug":null,"has_3d_model":false,"image_url":null,"decayed_at":null,"tle_current":{"epoch":"2026-09-20T10:19:53.247360Z","epoch_age_seconds":109104,"freshness":"FRESH","line1":"1 67274U 25313AC  26263.43047740  .00004170  00000+0  17709-3 0  9996","line2":"2 67274  97.3852 336.4942 0015028  35.2772 324.9457 15.23524143 40441","mean_motion":15.23524143,"eccentricity":0.0015028,"inclination_deg":97.3852,"raan_deg":336.4942,"arg_perigee_deg":35.2772,"mean_anomaly_deg":324.9457,"bstar":0.00017709,"rev_number":4044,"period_min":94.517701384401,"perigee_km":484.89144357973,"apogee_km":505.5500075597,"semimajor_km":6873.3577255697,"source":"CELESTRAK","updated_at":"2026-09-21T09:00:16.544674Z"}}}